[[{"header":{"parameterUnit":"m.s-1","parameterCategory":1,"la1":30.2991,"la2":30.254,"lo1":-89.0895,"lo2":-89.0444,"dy":0.0017,"dx":0.0017,"nx":28,"ny":28,"refTime":"2025-06-02T03:00:00:Z","depth":0,"parameterNumber":2,"parameterNumberName":"U-component_of_WINDS"},"data":[0,0,0,0,0,0,0,0,0,0,0,0,0,0,0,0,0,0,0,0,0,0,0,0,0,0,0,0,0,0,0,0,0,0,0,0,0,0,0,0,0,0,0,0,0,0,0,0,0,0,0,0,0,0,0,0,0,0,-6.5683,-6.5684,0,-6.578,-6.5781,-6.5782,-6.5722,-6.5719,-6.5716,-6.5714,-6.5809,-6.5814,-6.5819,0,0,0,0,0,0,0,0,0,0,0,0,0,-6.5443,-6.5447,-6.5683,-6.5684,-6.5686,-6.578,-6.5781,-6.5783,-6.5723,-6.5719,-6.5716,-6.5712,-6.5807,-6.5813,-6.5819,0,0,0,0,0,0,0,0,0,0,0,0,0,-6.5544,-6.5449,-6.5683,-6.5667,-6.5667,-6.578,-6.5781,-6.5783,-6.5723,-6.5719,-6.5715,-6.5711,-6.5805,-6.5812,-6.582,-6.5953,0,0,-6.5844,-6.5847,0,0,0,0,0,0,0,0,-6.5538,-6.5553,-6.5668,-6.5668,-6.5668,-6.5735,-6.5731,-6.584,-6.5724,-6.5702,-6.5714,-6.5709,-6.5787,-6.5796,-6.5823,-6.5957,-6.5961,-6.5844,-6.5849,-6.5852,-6.5854,0,0,0,0,0,0,0,-6.5531,-6.5548,-6.5721,-6.567,-6.567,-6.5654,-6.5664,-6.5751,-6.5767,-6.5703,-6.5699,-6.5712,-6.5786,-6.5816,-6.5825,-6.5962,-6.5844,-6.5851,-6.5856,-6.5859,-6.6209,-6.6213,0,0,0,0,0,0,-6.5526,-6.5543,-6.5718,-6.5724,-6.5592,-6.5662,-6.5673,-6.5718,-6.5766,-6.5769,-6.5715,-6.5709,-6.5805,-6.5816,-6.5828,-6.5985,-6.5852,-6.5859,-6.5864,-6.6204,-6.621,-6.6215,0,0,0,0,0,0,-6.5521,-6.5542,-6.5714,-6.5633,-6.5653,-6.5671,-6.5721,-6.5722,-6.5751,-6.5775,-6.5777,-6.5743,-6.5802,-6.5817,-6.5922,-6.5987,-6.5863,-6.587,-6.6199,-6.6206,-6.6212,-6.63,0,0,0,0,0,0,-6.5515,-6.5541,-6.5592,-6.5634,-6.5658,-6.5808,-6.5725,-6.5727,-6.5765,-6.5758,-6.5801,-6.5805,-6.58,-6.5911,-6.593,-6.5996,-6.5876,-6.6193,-6.6202,-6.621,-6.6291,-6.6309,-6.6325,0,0,0,0,0,-6.5506,-6.5612,-6.5595,-6.5616,-6.5722,-6.5812,-6.5825,-6.5819,-6.5771,-6.5822,-6.5837,-6.5803,-6.5978,-6.5922,-6.5943,-6.6012,-6.6188,-6.6199,-6.6209,-6.6284,-6.6306,-6.6324,0,0,0,0,0,0,-6.5575,-6.5617,-6.5599,-6.5722,-6.5764,-6.5801,-6.5865,-6.5842,-6.5897,-6.5887,-6.5876,-6.5887,-6.5996,-6.6015,-6.5952,-6.6143,-6.6076,-6.6091,-6.6125,-6.6146,-6.6162,-6.6153,-6.5882,0,0,0,0,0,-6.5606,-6.5676,-6.5708,-6.5814,-6.5836,-6.5848,-6.5886,-6.5878,-6.592,-6.5937,-6.596,-6.6001,-6.6065,-6.6107,-6.6168,-6.6296,-6.6303,-6.6353,-6.637,-6.6384,-6.6395,-6.6463,-6.6485,-6.6249,-6.6249,-6.6249,0,0,-6.5667,-6.5699,-6.5743,-6.5828,-6.586,-6.5931,-6.5862,-6.5941,-6.5993,-6.5948,-6.6048,-6.6067,-6.6113,-6.6229,-6.6281,-6.6248,-6.6463,-6.6397,-6.6408,-6.6412,-6.6476,-6.6498,-6.6518,-6.6256,-6.6255,-6.6254,0,0,-6.5815,-6.5848,-6.5938,-6.5972,-6.6021,-6.6028,-6.6051,-6.6092,-6.6103,-6.6204,-6.6172,-6.6234,-6.6345,-6.6378,-6.641,-6.6574,-6.6543,-6.6594,-6.6678,-6.6744,-6.6763,-6.6779,-6.6834,-6.6855,-6.6607,-6.6607,-6.6607,0,-6.5884,-6.5992,-6.5987,-6.6068,-6.6106,-6.6072,-6.6162,-6.6195,-6.6261,-6.6287,-6.625,-6.6389,-6.6418,-6.654,-6.6581,-6.6609,-6.6631,-6.6586,-6.6761,-6.6777,-6.6792,-6.6845,-6.6866,-6.6612,-6.6612,-6.6611,-6.6611,0,-6.6074,-6.6149,-6.6216,-6.6282,-6.6328,-6.6414,-6.6421,-6.6468,-6.6457,-6.6468,-6.657,-6.6604,-6.667,-6.67,-6.6689,-6.6821,-6.6799,-6.6762,-6.6694,-6.682,-6.6869,-6.689,-6.662,-6.6618,-6.6617,-6.6615,0,0,-6.6263,-6.6328,-6.6352,-6.6382,-6.6435,-6.6492,-6.6577,-6.6643,-6.6682,-6.6731,-6.6799,-6.6895,-6.6862,-6.6898,-6.6891,-6.695,-6.7074,-6.6905,-6.6906,-6.6932,-6.7219,-6.7243,-6.7267,-6.7057,-6.7061,-6.7064,-6.7214,0,-6.6412,-6.6559,-6.6559,-6.6694,-6.6763,-6.6733,-6.6806,-6.6846,-6.686,-6.6919,-6.6933,-6.7,-6.6953,-6.6974,-6.7031,-6.7047,-6.7131,-6.7037,-6.7117,-6.712,-6.7103,-6.7293,-6.7319,-6.7459,-6.7233,-6.7237,-6.7239,0,-6.6604,-6.6659,-6.6802,-6.6846,-6.6874,-6.694,-6.7001,-6.7059,-6.7104,-6.7109,-6.7151,-6.7136,-6.722,-6.7154,-6.7268,-6.7204,-6.7238,-6.7252,-6.7257,-6.726,-6.7184,-6.7298,-6.7504,-6.7523,-6.727,-6.7268,-6.7265,0,-6.6723,-6.6834,-6.6934,-6.6961,-6.7015,-6.7061,-6.7086,-6.7127,-6.7167,-6.7221,-6.7246,-6.7309,-6.7342,-6.739,-6.7391,-6.7343,-6.7507,-6.7441,-6.7511,-6.7511,-6.7543,-6.754,-6.7753,-6.7572,-6.7572,-6.7572,-6.7571,0,-6.6887,-6.6974,-6.6988,-6.7049,-6.7147,-6.7146,-6.7242,-6.7262,-6.7299,-6.7362,-6.7342,-6.7401,-6.7402,-6.7462,-6.7465,-6.7558,-6.7574,-6.758,-6.7578,-6.7579,-6.7578,-6.7598,-6.7586,-6.7577,-6.7576,-6.7575,-6.7574,0,-6.7035,-6.7048,-6.7154,-6.7198,-6.7211,-6.7281,-6.7317,-6.7375,-6.7388,-6.7468,-6.7487,-6.7506,-6.7577,-6.7585,-6.7667,-6.7668,-6.778,-6.7771,-6.7765,-6.7762,-6.7831,-6.7823,-6.806,-6.809,-6.7894,-6.7896,-6.7897,0,-6.7136,-6.7203,-6.7255,-6.7296,-6.7324,-6.7391,-6.7432,-6.7435,-6.7478,-6.7536,-6.7586,-6.7655,-6.7709,-6.7823,-6.7844,-6.7906,-6.7896,-6.7975,-6.7904,-6.7903,-6.7893,-6.7887,-6.7892,-6.7987,-6.7989,-6.7991,-6.7992,0,-6.7313,-6.7317,-6.7378,-6.7442,-6.7492,-6.7542,-6.7589,-6.7624,-6.7632,-6.7683,-6.7755,-6.7798,-6.7883,-6.795,-6.8012,-6.8036,-6.8015,-6.8015,-6.8034,-6.8033,-6.8026,-6.8027,-6.7798,-6.8008,-6.8007,-6.8005,-6.8004,-6.8004,-6.7438,-6.7496,-6.7541,-6.761,-6.7646,-6.7691,-6.7747,-6.7768,-6.7829,-6.7899,-6.7897,-6.7976,-6.802,-6.8101,-6.813,-6.8191,-6.8165,-6.8193,-6.82,-6.8206,-6.8211,-6.802,-6.8203,-6.8203,-6.8202,-6.8202,-6.8202,0,-6.7611,-6.764,-6.7703,-6.777,-6.7824,-6.7804,-6.7855,-6.79,-6.7971,-6.8015,-6.807,-6.8153,-6.8219,-6.8247,-6.8311,-6.8355,-6.8347,-6.8371,-6.8366,-6.8371,-6.8233,-6.8208,-6.8377,-6.8377,-6.8377,-6.8377,-6.8377,-6.8377,-6.7707,-6.7803,-6.7813,-6.7926,-6.7954,-6.8033,-6.8064,-6.8104,-6.8139,-6.8233,-6.8289,-6.8307,-6.8344,-6.8411,-6.8471,-6.8477,-6.85,-6.8529,-6.853,-6.8399,-6.8381,-6.8364,-6.8341,-6.8535,-6.8535,-6.8663,-6.8664,-6.8665]},{"header":{"parameterUnit":"m.s-1","parameterCategory":1,"la1":30.2991,"la2":30.254,"lo1":-89.0895,"lo2":-89.0444,"dy":0.0017,"dx":0.0017,"nx":28,"ny":28,"refTime":"2025-06-02T03:00:00:Z","depth":0,"parameterNumber":3,"parameterNumberName":"V-component_of_WINDS"},"data":[0,0,0,0,0,0,0,0,0,0,0,0,0,0,0,0,0,0,0,0,0,0,0,0,0,0,0,0,0,0,0,0,0,0,0,0,0,0,0,0,0,0,0,0,0,0,0,0,0,0,0,0,0,0,0,0,0,0,3.2212,3.2214,0,3.2341,3.2342,3.2344,3.2391,3.239,3.239,3.239,3.2516,3.2519,3.2523,0,0,0,0,0,0,0,0,0,0,0,0,0,3.2004,3.2008,3.2212,3.2214,3.2215,3.2341,3.2342,3.2344,3.2391,3.239,3.239,3.2389,3.2515,3.2519,3.2523,0,0,0,0,0,0,0,0,0,0,0,0,0,3.2109,3.2009,3.2212,3.2254,3.2259,3.234,3.2342,3.2344,3.2391,3.239,3.239,3.2389,3.2513,3.2519,3.2524,3.2571,0,0,3.2541,3.2544,0,0,0,0,0,0,0,0,3.2103,3.2117,3.2246,3.2251,3.2257,3.2349,3.2315,3.242,3.2391,3.2341,3.239,3.2389,3.2461,3.247,3.2496,3.2577,3.2582,3.2542,3.2545,3.2548,3.2549,0,0,0,0,0,0,0,3.2096,3.2112,3.2263,3.2248,3.2255,3.2265,3.228,3.2335,3.2402,3.2345,3.2349,3.2364,3.2463,3.249,3.2499,3.2584,3.2542,3.2547,3.255,3.2552,3.2713,3.2714,0,0,0,0,0,0,3.2082,3.2105,3.2259,3.2267,3.2177,3.227,3.2286,3.232,3.2402,3.2414,3.2364,3.2365,3.2481,3.2492,3.2504,3.2566,3.2548,3.2553,3.2556,3.2712,3.2713,3.2714,0,0,0,0,0,0,3.2078,3.2096,3.2254,3.2187,3.2208,3.2274,3.2312,3.2323,3.235,3.2416,3.2428,3.2379,3.2481,3.2496,3.2555,3.2571,3.2555,3.256,3.2711,3.2712,3.2714,3.2689,0,0,0,0,0,0,3.2071,3.2094,3.2113,3.2187,3.2212,3.2304,3.2313,3.2326,3.236,3.2363,3.2434,3.2445,3.2482,3.2546,3.256,3.2578,3.2565,3.271,3.2712,3.2713,3.2688,3.2689,3.269,0,0,0,0,0,3.2064,3.2099,3.2113,3.2132,3.2237,3.2304,3.2318,3.2361,3.2361,3.2381,3.2424,3.2443,3.2567,3.2552,3.2568,3.2588,3.2709,3.2711,3.2713,3.2688,3.2689,3.269,0,0,0,0,0,0,3.2022,3.2109,3.2126,3.2187,3.2238,3.2312,3.2338,3.236,3.2411,3.2411,3.2461,3.2476,3.2532,3.2566,3.2548,3.2639,3.2639,3.2644,3.2614,3.2616,3.2616,3.2607,3.257,0,0,0,0,0,3.202,3.2069,3.2142,3.2188,3.2214,3.2271,3.2302,3.2331,3.2386,3.2407,3.2454,3.2505,3.2556,3.2587,3.2637,3.2694,3.271,3.2715,3.2716,3.2716,3.272,3.2754,3.2757,3.2721,3.2721,3.2721,0,0,3.2016,3.207,3.2097,3.2181,3.2225,3.2273,3.2289,3.2339,3.2376,3.2414,3.2474,3.251,3.257,3.2628,3.2656,3.2658,3.2734,3.2719,3.2718,3.2722,3.2756,3.2759,3.2762,3.2722,3.2722,3.2722,0,0,3.2034,3.2079,3.2124,3.2168,3.2234,3.2273,3.2283,3.2355,3.2381,3.2442,3.2473,3.2516,3.2602,3.2644,3.2676,3.2713,3.2733,3.2728,3.273,3.2763,3.2766,3.2769,3.2782,3.2787,3.2732,3.2732,3.2732,0,3.202,3.2096,3.2143,3.2193,3.223,3.2269,3.2315,3.2354,3.2432,3.2456,3.2457,3.2568,3.2611,3.268,3.269,3.2714,3.2728,3.272,3.2762,3.2765,3.2768,3.2782,3.2787,3.2731,3.2731,3.2731,3.2731,0,3.2076,3.2128,3.2156,3.2234,3.2273,3.232,3.2374,3.2408,3.2434,3.2473,3.2535,3.2588,3.2651,3.267,3.2694,3.2743,3.2743,3.2752,3.2754,3.277,3.2784,3.2789,3.2729,3.273,3.273,3.273,0,0,3.2069,3.2175,3.2184,3.2221,3.2298,3.2338,3.2387,3.2451,3.2479,3.2532,3.2575,3.2648,3.2658,3.2695,3.2725,3.2754,3.2781,3.276,3.2762,3.2762,3.2839,3.2831,3.2836,3.2794,3.2796,3.2797,3.2834,0,3.2098,3.2189,3.2235,3.2306,3.2355,3.2394,3.2437,3.2489,3.2526,3.2573,3.2613,3.2665,3.2674,3.2697,3.2727,3.2771,3.2796,3.2769,3.2834,3.2835,3.2818,3.2844,3.2835,3.2868,3.284,3.284,3.2841,0,3.2143,3.2198,3.2275,3.2348,3.2371,3.2409,3.2471,3.2516,3.2575,3.26,3.2643,3.2673,3.2726,3.2724,3.2797,3.2778,3.2807,3.2833,3.2835,3.2842,3.2839,3.2852,3.2879,3.2884,3.285,3.2849,3.2849,0,3.2131,3.2225,3.2284,3.2313,3.24,3.2426,3.2463,3.2522,3.2558,3.2612,3.2636,3.2695,3.2727,3.2772,3.2817,3.2811,3.2886,3.2888,3.2909,3.2907,3.2922,3.292,3.2955,3.2941,3.2941,3.294,3.294,0,3.2158,3.2204,3.228,3.2316,3.2368,3.242,3.247,3.251,3.2563,3.2607,3.2643,3.2684,3.2741,3.2788,3.2823,3.288,3.2893,3.2915,3.2924,3.2912,3.2909,3.2932,3.293,3.2942,3.2942,3.2941,3.2941,0,3.2154,3.2207,3.2274,3.2351,3.2372,3.2407,3.2473,3.2509,3.255,3.2605,3.2621,3.2684,3.2741,3.2791,3.2866,3.2891,3.2948,3.2959,3.2929,3.2934,3.2952,3.295,3.3002,3.3011,3.299,3.299,3.299,0,3.2168,3.2204,3.2287,3.232,3.2357,3.2409,3.2447,3.25,3.2537,3.2609,3.2636,3.2698,3.2749,3.284,3.2891,3.2949,3.2962,3.2976,3.297,3.2958,3.2963,3.296,3.2964,3.2976,3.2976,3.2976,3.2976,0,3.2187,3.2212,3.2266,3.2329,3.2374,3.2426,3.2479,3.2503,3.2565,3.2606,3.2667,3.2707,3.2786,3.2846,3.291,3.2947,3.2972,3.2978,3.2986,3.2973,3.2955,3.2966,3.293,3.2976,3.2976,3.2976,3.2976,3.2976,3.2193,3.2228,3.2292,3.2351,3.2397,3.2446,3.2485,3.2531,3.2583,3.2653,3.268,3.2742,3.2802,3.2892,3.2929,3.2978,3.2982,3.2993,3.2996,3.2998,3.2996,3.2948,3.299,3.299,3.299,3.299,3.299,0,3.2215,3.2258,3.2312,3.2387,3.2433,3.2455,3.2515,3.2552,3.2607,3.2661,3.2713,3.2783,3.2842,3.2899,3.2961,3.299,3.3002,3.3004,3.3002,3.3011,3.2989,3.2976,3.2993,3.2993,3.2993,3.2993,3.2993,3.2993,3.2231,3.2292,3.2325,3.2409,3.2452,3.2515,3.2548,3.2594,3.2638,3.2715,3.2766,3.2803,3.2859,3.2926,3.2981,3.2996,3.3017,3.3016,3.3034,3.3013,3.3012,3.3011,3.2999,3.302,3.302,3.3052,3.3052,3.3052]}]]